Вернуться в каталог

YAOGAN 9B

АктивенВоенныеLEO
NORAD 36414·PAYLOAD·🇨🇳 China

Запущен Mar 5, 2010 с Jiuquan Satellite Launch Center

Loading…

Ближайшие Пролёты (ближайшие 24 часа)

TLE

СвежийSource: Space-Track

Эпоха: Sep 14, 2026, 15:33 UTC

1 36414U 10009B   26257.64857244  .00000012  00000-0  71298-4 0  9994
2 36414  63.3636 126.3260 0546005  21.6130 340.7009 13.45724539811781

Отслеживайте YAOGAN 9B в реальном времени с AllMySat

Download on the App Store